King Shaka Intl Arpt, South Africa

7:57 PM SAST on February 24, 2017 (GMT +0200)
La Mercy

Weather History for FALE - June, 2013

Change the Weather History Date:

Wednesday, June 12, 2013

  Actual Average Record
Temperature  
Mean Temperature 60 °F -  
Max Temperature 72 °F - - ()
Min Temperature 44 °F - - ()
Degree Days  
Heating Degree Days 6    
Growing Degree Days 10 (Base 50)    
Moisture  
Dew Point 44 °F    
Average Humidity 68    
Maximum Humidity 100    
Minimum Humidity 23    
Precipitation  
Precipitation 0.00 in - - ()
Sea Level Pressure  
Sea Level Pressure 30.04 in    
Wind  
Wind Speed 3 mph ()    
Max Wind Speed 10 mph    
Max Gust Speed -    
Visibility 12.0 miles    
Events      
T = Trace of Precipitation, MM = Missing Value Source: Averaged Metar Reports

Daily Weather History Graph

Daily Weather History Graph

Search for Another Location

Airport or City:

Trip Planner

Search our weather history database for the weather conditions in past years. The results will help you decide how hot, cold, wet, or windy it might be!

Date:

Astronomy

Jun. 12, 2013 Rise Set
Actual Time 6:47 AM SAST 5:03 PM SAST
Civil Twilight 6:21 AM SAST 5:29 PM SAST
Nautical Twilight 5:51 AM SAST 5:59 PM SAST
Astronomical Twilight 5:22 AM SAST 6:28 PM SAST
Moon 9:16 AM SAST (6/12) 8:29 PM SAST (6/12)
Length of Visible Light 11h 08m
Length of Day
10h 16m
Waxing Crescent, 12% of the Moon is Illuminated
Jun 12
Waxing Crescent
Jun 16
First Quarter
Jun 23
Full
Jun 30
Last Quarter
Jul 8
New

Hourly Weather History & Observations

Time (SAST) Temp. Windchill Dew Point Humidity Pressure Visibility Wind Dir Wind Speed Gust Speed Precip Events Conditions
12:00 AM 44.6 °F - 44.6 °F 100% 30.12 in - Variable 1.2 mph - N/A   Clear
1:00 AM 44.6 °F 42.2 °F 42.8 °F 93% 30.12 in - SSW 4.6 mph - N/A   Clear
2:00 AM 52 °F - 38 °F 48% 30.10 in 12 mi Calm Calm - -  
2:00 AM 42.8 °F - 41.0 °F 93% 30.09 in - Variable 1.2 mph - N/A   Clear
3:00 AM 42.8 °F - 42.8 °F 100% 30.06 in - Variable 2.3 mph - N/A   Clear
4:00 AM 41.0 °F - 39.2 °F 93% 30.06 in - ESE 2.3 mph - N/A   Clear
5:00 AM 53 °F - 35 °F 38% 30.05 in - Calm Calm - -  
5:00 AM 39.2 °F - 39.2 °F 100% 30.04 in - Variable 2.3 mph - N/A   Clear
6:00 AM 37.4 °F - 35.6 °F 93% 30.04 in - Variable 2.3 mph - N/A   Clear
7:00 AM 41.0 °F - 39.2 °F 93% 30.06 in - Variable 1.2 mph - N/A   Clear
8:00 AM 55 °F - 38 °F 41% 30.07 in 12 mi Calm Calm - -  
8:00 AM 48.2 °F - 44.6 °F 87% 30.06 in - Variable 1.2 mph - N/A   Clear
9:00 AM 59.0 °F - 48.2 °F 67% 30.06 in - SSW 4.6 mph - N/A   Clear
10:00 AM 66.2 °F - 37.4 °F 35% 30.09 in - SSW 6.9 mph - N/A   Clear
11:00 AM 69 °F - 39 °F 23% 30.07 in - South 3.5 mph - -  
11:00 AM 69.8 °F - 37.4 °F 31% 30.06 in - South 4.6 mph - N/A   Clear
12:00 PM 71.6 °F - 39.2 °F 31% 30.04 in - SSE 5.8 mph - N/A   Clear
1:00 PM 71.6 °F - 44.6 °F 38% 30.01 in - SSE 6.9 mph - N/A   Clear
2:00 PM 72 °F - 45 °F 27% 30.05 in 12 mi South 10.4 mph - -  
2:00 PM 71.6 °F - 44.6 °F 38% 30.01 in - South 8.1 mph - N/A   Clear
3:00 PM 69.8 °F - 51.8 °F 53% 30.01 in - South 10.4 mph - N/A   Clear
4:00 PM 69.8 °F - 53.6 °F 56% 30.01 in - South 6.9 mph - N/A   Clear
5:00 PM 65 °F - 54 °F 58% 29.99 in 12 mi South 3.5 mph - -  
5:00 PM 64.4 °F - 55.4 °F 73% 30.01 in - South 4.6 mph - N/A   Clear
6:00 PM 55.4 °F - 53.6 °F 94% 30.01 in - Variable 1.2 mph - N/A   Clear
7:00 PM 51.8 °F - 50.0 °F 94% 30.01 in - Variable 1.2 mph - N/A   Clear
8:00 PM 56 °F - 50 °F 75% 30.01 in 12 mi Calm Calm - -  
8:00 PM 51.8 °F - 50.0 °F 94% 30.01 in - Variable 1.2 mph - N/A   Clear
9:00 PM 50.0 °F - 48.2 °F 94% 30.01 in - Variable 1.2 mph - N/A   Clear
10:00 PM 51.8 °F - 44.6 °F 76% 30.01 in - SW 4.6 mph - N/A   Clear
11:00 PM 55 °F - 41 °F 47% 30.00 in - Calm Calm - -  
11:00 PM 44.6 °F - 42.8 °F 93% 30.01 in - Variable 2.3 mph - N/A   Clear